Voltar ao catálogo

SIRION PATHFINDER-2

AtivoCiênciaSSO
NORAD 43759·PAYLOAD·🇺🇸 United States

Lançado Dec 3, 2018 de Vandenberg Space Force Base

Loading…

Próximas Passagens (próximas 24 horas)

TLE

AtualizadoSource: Space-Track

Época: Sep 14, 2026, 21:10 UTC

1 43759U 18099B   26257.88237525  .00004027  00000-0  21785-3 0  9996
2 43759  97.4164 304.8062 0008356   0.2662 359.8574 15.15195075426206

Acompanhe SIRION PATHFINDER-2 em tempo real com AllMySat

Download on the App Store